Weather History for New Bern, NC

Change the Weather History Date:

Wednesday, January 2, 2013

  Actual Average Record
Temperature  
Mean Temperature 47 °F 44 °F  
Max Temperature 53 °F 54 °F 80 °F (1952)
Min Temperature 41 °F 34 °F 17 °F (1963)
Degree Days  
Heating Degree Days 18 21  
Month to date heating degree days 30 42  
Since 1 July heating degree days 972 1036  
Cooling Degree Days 0 0  
Month to date cooling degree days 0 0  
Year to date cooling degree days 0 0  
Moisture  
Dew Point 46 °F    
Average Humidity 91    
Maximum Humidity 100    
Minimum Humidity 82    
Precipitation  
Precipitation 0.43 in 0.13 in 2.03 in (1979)
Month to date precipitation 0.48 0.25  
Year to date precipitation 0.48 0.25  
Snow  
Snow 0.00 in - - ()
Month to date snowfall 0.0  
Since 1 July snowfall 0.0  
Snow Depth 0.00 in    
Sea Level Pressure  
Sea Level Pressure 30.03 in    
Wind  
Wind Speed 7 mph (NE)    
Max Wind Speed 14 mph    
Max Gust Speed 18 mph    
Visibility 5 miles    
Events Fog , Rain    
T = Trace of Precipitation, MM = Missing Value Source: NWS Daily Summary

Daily Weather History Graph

Daily Weather History Graph

Search for Another Location

Airport:

Trip Planner

Search our weather history database for the weather conditions in past years. The results will help you decide how hot, cold, wet, or windy it might be!

Date:

Astronomy

Jan. 02, 2013 Rise Set
Actual Time 7:16 AM EST 5:08 PM EST
Civil Twilight 6:48 AM EST 5:36 PM EST
Nautical Twilight 6:16 AM EST 6:07 PM EST
Astronomical Twilight 5:46 AM EST 6:38 PM EST
Moon 10:25 PM EST (1/2) 10:09 AM EST (1/2)
Length of Visible Light 10h 47m
Length of Day
9h 51m
Waning Gibbous, 75% of the Moon is Illuminated
Jan 2
Waning Gibbous
Jan 4
Last Quarter
Jan 11
New
Jan 18
First Quarter
Jan 26
Full

Hourly Weather History & Observations

Time (EST) Temp. Windchill Dew Point Humidity Pressure Visibility Wind Dir Wind Speed Gust Speed Precip Events Conditions
12:16 AM 53.6 °F - 51.8 °F 94% 29.97 in 1.2 mi Calm Calm - 0.01 in Rain Light Rain
12:27 AM 53.6 °F - 51.8 °F 94% 29.96 in 0.8 mi NNE 3.5 mph - 0.01 in Rain Light Rain
12:35 AM 53.6 °F - 51.8 °F 94% 29.96 in 1.0 mi Calm Calm - 0.02 in Rain Light Rain
12:43 AM 51.8 °F - 51.8 °F 100% 29.95 in 0.8 mi Calm Calm - 0.02 in Rain Light Rain
12:52 AM 53.6 °F - 51.8 °F 94% 29.95 in 1.0 mi Calm Calm - 0.03 in Rain Light Rain
12:54 AM 53.1 °F - 52.0 °F 96% 29.95 in 1.0 mi Calm Calm - 0.03 in Rain Light Rain
1:06 AM 53.6 °F - 51.8 °F 94% 29.94 in 2.0 mi Calm Calm - 0.00 in Rain Light Rain
1:18 AM 53.6 °F - 51.8 °F 94% 29.94 in 2.0 mi Calm Calm - 0.00 in Rain Light Rain
1:32 AM 53.6 °F - 51.8 °F 94% 29.95 in 1.5 mi Calm Calm - 0.00 in Rain Light Rain
1:49 AM 53.6 °F - 51.8 °F 94% 29.95 in 0.8 mi Calm Calm - 0.02 in Rain Rain
1:54 AM 53.1 °F - 52.0 °F 96% 29.95 in 0.8 mi Calm Calm - 0.03 in Rain Rain
2:42 AM 53.6 °F - 51.8 °F 94% 29.95 in 1.0 mi Calm Calm - 0.04 in Rain Light Rain
2:47 AM 53.6 °F - 51.8 °F 94% 29.95 in 0.5 mi Calm Calm - 0.05 in Fog , Rain Light Rain
2:54 AM 53.1 °F - 51.1 °F 93% 29.95 in 0.5 mi Calm Calm - 0.05 in Fog , Rain Light Rain
3:18 AM 53.6 °F - 51.8 °F 94% 29.94 in 0.8 mi Calm Calm - 0.04 in Rain Rain
3:31 AM 53.6 °F - 51.8 °F 94% 29.94 in 1.0 mi Calm Calm - 0.05 in Rain Light Rain
3:43 AM 53.6 °F - 51.8 °F 94% 29.94 in 1.2 mi North 3.5 mph - 0.08 in Rain Heavy Rain
3:54 AM 53.1 °F - 52.0 °F 96% 29.95 in 1.8 mi Calm Calm - 0.11 in Rain Rain
4:03 AM 53.6 °F - 51.8 °F 94% 29.95 in 2.5 mi NNW 3.5 mph - 0.02 in Rain Rain
4:14 AM 53.6 °F - 51.8 °F 94% 29.95 in 4.0 mi Calm Calm - 0.03 in Rain Rain
4:22 AM 53.6 °F - 51.8 °F 94% 29.95 in 3.0 mi NNE 11.5 mph - 0.05 in Rain Rain
4:44 AM 50.0 °F - 48.2 °F 94% 29.94 in 4.0 mi NE 9.2 mph - 0.09 in Rain Light Rain
4:54 AM 50.0 °F - 48.9 °F 96% 29.94 in 7.0 mi NE 8.1 mph - 0.09 in Rain Light Rain
5:54 AM 48.9 °F - 48.0 °F 97% 29.96 in 4.0 mi ENE 6.9 mph - 0.07 in Rain Rain
7:54 AM 48.0 °F - 46.0 °F 93% 30.01 in 10.0 mi NNE 8.1 mph - 0.01 in   Overcast
8:19 AM 48.2 °F - 46.4 °F 93% 30.02 in 1.8 mi NNE 10.4 mph - 0.01 in Rain Light Rain
8:33 AM 48.2 °F - 46.4 °F 93% 30.02 in 2.0 mi NE 10.4 mph - 0.01 in Rain Light Rain
8:54 AM 48.0 °F - 46.0 °F 93% 30.03 in 2.5 mi NNE 10.4 mph - 0.01 in Rain Light Rain
9:22 AM 48.2 °F - 44.6 °F 87% 30.05 in 4.0 mi NNE 8.1 mph - 0.01 in   Overcast
9:54 AM 46.9 °F - 44.1 °F 90% 30.06 in 8.0 mi NNE 10.4 mph - 0.01 in Rain Light Rain
10:54 AM 48.0 °F - 45.0 °F 89% 30.04 in 10.0 mi ESE 6.9 mph - 0.00 in Rain Light Rain
11:08 AM 48.2 °F - 44.6 °F 87% 30.05 in 10.0 mi East 3.5 mph - 0.00 in Rain Light Rain
11:21 AM 48.2 °F - 44.6 °F 87% 30.07 in 10.0 mi NNE 6.9 mph - 0.00 in   Overcast
11:54 AM 48.9 °F - 45.0 °F 86% 30.05 in 10.0 mi NNE 9.2 mph - 0.00 in   Overcast
12:54 PM 46.0 °F 40.2 °F 43.0 °F 89% 30.06 in 10.0 mi NNE 12.7 mph - N/A   Overcast
1:54 PM 45.0 °F 38.5 °F 42.1 °F 90% 30.06 in 9.0 mi NNE 13.8 mph - N/A   Overcast
2:54 PM 44.1 °F 38.1 °F 39.9 °F 85% 30.09 in 10.0 mi NNE 11.5 mph - N/A   Overcast
3:54 PM 45.0 °F 41.2 °F 41.0 °F 86% 30.10 in 6.0 mi ENE 6.9 mph - N/A   Overcast
4:54 PM 44.1 °F 39.5 °F 39.9 °F 85% 30.13 in 7.0 mi NE 8.1 mph - N/A   Overcast
6:54 PM 43.0 °F 38.2 °F 39.0 °F 86% 30.16 in 10.0 mi NNE 8.1 mph - N/A   Overcast
7:35 PM 42.8 °F 38.6 °F 39.2 °F 87% 30.17 in 10.0 mi NE 6.9 mph - N/A   Overcast
7:54 PM 43.0 °F 38.2 °F 39.0 °F 86% 30.16 in 10.0 mi NE 8.1 mph - N/A   Overcast
8:54 PM 43.0 °F 39.5 °F 37.9 °F 82% 30.19 in 10.0 mi ENE 5.8 mph - N/A   Overcast
9:54 PM 42.1 °F 38.4 °F 37.9 °F 85% 30.20 in 10.0 mi NNE 5.8 mph - N/A   Overcast
10:28 PM 42.8 °F 40.1 °F 37.4 °F 81% 30.20 in 10.0 mi NE 4.6 mph - N/A   Scattered Clouds
10:54 PM 42.1 °F 39.2 °F 37.0 °F 82% 30.19 in 10.0 mi East 4.6 mph - N/A   Scattered Clouds
11:11 PM 42.8 °F 41.1 °F 37.4 °F 81% 30.19 in 10.0 mi ENE 3.5 mph - N/A   Mostly Cloudy
11:19 PM 42.8 °F 39.3 °F 37.4 °F 81% 30.19 in 10.0 mi ENE 5.8 mph - N/A   Scattered Clouds
11:54 PM 41.0 °F - 37.0 °F 86% 30.21 in 10.0 mi Calm Calm - N/A   Clear